Caldwell, NJ

8:07 PM EDT on August 24, 2019 (GMT -0400)
Essex County

Weather History for KCDW - June, 2019

Change the Weather History Date:

Friday, June 7, 2019

  Actual Average Record
Temperature  
Mean Temperature 72 °F -  
Max Temperature 82 °F 76 °F 95 °F (1999)
Min Temperature 63 °F 53 °F 42 °F (1958)
Cooling Degree Days 8    
Growing Degree Days 22 (Base 50)    
Moisture  
Dew Point 58 °F    
Average Humidity 63    
Maximum Humidity 90    
Minimum Humidity 41    
Precipitation  
Precipitation 0.00 in - - ()
Sea Level Pressure  
Sea Level Pressure 29.94 in    
Wind  
Wind Speed 1 mph (NE)    
Max Wind Speed 6 mph    
Max Gust Speed -    
Visibility 10 miles    
Events      
Averages and records for this station are not official NWS values.
T = Trace of Precipitation, MM = Missing Value Source: NWS Daily Summary

Daily Weather History Graph

Daily Weather History Graph

Search for Another Location

Airport or City:

Astronomy

Jun. 07, 2019 Rise Set
Actual Time 5:25 AM EDT 8:26 PM EDT
Civil Twilight 4:52 AM EDT 8:59 PM EDT
Nautical Twilight 4:10 AM EDT 9:41 PM EDT
Astronomical Twilight 3:21 AM EDT 10:31 PM EDT
Moon 9:40 AM EDT (6/7) No Moon Set
Length of Visible Light 16h 07m
Length of Day
15h 00m
Waxing Crescent, 22% of the Moon is Illuminated
Jun 7
Waxing Crescent
Jun 10
First Quarter
Jun 17
Full
Jun 25
Last Quarter
Jul 2
New

Hourly Weather History & Observations

Time (EDT) Temp. Heat Index Dew Point Humidity Pressure Visibility Wind Dir Wind Speed Gust Speed Precip Events Conditions
12:53 AM 66.9 °F - 61.0 °F 81% 29.89 in 10.0 mi Calm Calm - N/A   Clear
1:53 AM 66.0 °F - 61.0 °F 84% 29.88 in 10.0 mi Calm Calm - N/A   Clear
2:53 AM 64.9 °F - 61.0 °F 87% 29.88 in 10.0 mi Calm Calm - N/A   Clear
3:53 AM 64.0 °F - 60.1 °F 87% 29.88 in 10.0 mi Calm Calm - N/A   Clear
4:53 AM 63.0 °F - 60.1 °F 90% 29.89 in 10.0 mi Calm Calm - N/A   Clear
5:53 AM 63.0 °F - 60.1 °F 90% 29.92 in 10.0 mi Calm Calm - N/A   Mostly Cloudy
6:53 AM 66.0 °F - 60.1 °F 81% 29.94 in 10.0 mi Calm Calm - N/A   Mostly Cloudy
7:53 AM 69.1 °F - 59.0 °F 70% 29.94 in 10.0 mi NE 5.8 mph - N/A   Clear
8:53 AM 72.0 °F - 57.9 °F 61% 29.95 in 10.0 mi Variable 4.6 mph - N/A   Clear
9:53 AM 75.0 °F - 57.9 °F 55% 29.94 in 10.0 mi Variable 4.6 mph - N/A   Clear
10:53 AM 77.0 °F - 55.9 °F 48% 29.96 in 10.0 mi Variable 4.6 mph - N/A   Clear
11:53 AM 77.0 °F - 55.9 °F 48% 29.96 in 10.0 mi Variable 5.8 mph - N/A   Clear
12:53 PM 80.1 °F 80.4 °F 57.0 °F 45% 29.96 in 10.0 mi Calm Calm - N/A   Partly Cloudy
1:53 PM 81.0 °F 80.8 °F 55.9 °F 42% 29.96 in 10.0 mi Variable 3.5 mph - N/A   Partly Cloudy
2:53 PM 81.0 °F 80.7 °F 55.0 °F 41% 29.94 in 10.0 mi Calm Calm - N/A   Scattered Clouds
3:53 PM 82.0 °F 81.6 °F 55.9 °F 41% 29.93 in 10.0 mi NE 5.8 mph - N/A   Clear
4:53 PM 81.0 °F 80.8 °F 55.9 °F 42% 29.93 in 10.0 mi NNE 3.5 mph - N/A   Clear
5:53 PM 80.1 °F 80.4 °F 57.0 °F 45% 29.94 in 10.0 mi NE 4.6 mph - N/A   Clear
6:53 PM 79.0 °F - 55.0 °F 44% 29.95 in 10.0 mi Calm Calm - N/A   Clear
7:16 PM 78.1 °F - 54.0 °F 43% 29.94 in 10.0 mi NE 3.5 mph - N/A   Partly Cloudy
7:53 PM 77.0 °F - 59.0 °F 54% 29.97 in 10.0 mi Calm Calm - N/A   Clear
8:53 PM 75.0 °F - 61.0 °F 62% 29.97 in 10.0 mi Calm Calm - N/A   Clear
9:53 PM 71.1 °F - 62.1 °F 73% 30.00 in 10.0 mi Calm Calm - N/A   Clear
10:53 PM 70.0 °F - 62.1 °F 76% 30.01 in 10.0 mi South 3.5 mph - N/A   Clear
11:53 PM 66.9 °F - 62.1 °F 84% 30.03 in 10.0 mi Calm Calm - N/A   Clear